Flag for Japan Weather past 2 weeks in Hiroshima, Japan

Now
67 °F

Fog.


Feels Like: 67 °F
Forecast: 47 / 75 °F
Wind: No wind

Location: Iwakuni Marine Corps Air Station

Current Time: May 4, 2015 at 10:06:01 AM

Latest Report: May 4, 2015 at 8:55 AM


Visibility: 5 mi

Pressure: 29.70 "Hg

Humidity: 93%

Dew point: 65 °F

Location of HiroshimaLocation

Historic Weather in Hiroshima — Graph

°F

Hiroshima temperature yesterday

Maximum temperature yesterday: 69 °F (at 8:55 AM)
Minimum temperature yesterday: 64 °F (at 4:55 AM)
Average temperature yesterday: 66 °F

Past Weeks' High & Low Weather Summary

 TemperatureHumidityPressure
High79 °F (Apr 27, 4:55 PM)100% (May 3, 5:55 PM)30.20 "Hg (May 3, 5:55 PM)
Low49 °F (Apr 23, 5:55 AM)26% (Apr 27, 4:55 PM)29.53 "Hg (Apr 20, 1:55 PM)
Average64 °F72%29.97 "Hg
* Reported Apr 19 7:55 AM — May 4 7:55 AM, Hiroshima, Weather by CustomWeather, © 2015

Note: Actual official high and low records may vary slightly from our data, if they occured in-between our weather recording intervals... More about our weather records

Advertising

Hiroshima weather history for previous 24 hours

 ConditionsComfort  
Time TempWeatherWind HumidityBarometerVisibility
7:55 AM
Mon, May 4
67 °FLight rain. Fog.No wind93%29.70 "Hg4 mi
6:55 AM63 °FLight rain. Fog.No wind87%29.70 "Hg3 mi
4:55 AM63 °FLight rain. Fog.5 mph87%29.70 "Hg5 mi
3:55 AM63 °FLight rain. Fog.5 mph87%29.71 "Hg5 mi
2:55 AM63 °FSprinkles. Fog.5 mph87%29.72 "Hg3 mi
1:55 AM63 °FSprinkles. Overcast.5 mph100%29.73 "Hg1 mi
11:55 PM
Sun, May 3
64 °FLight rain. Fog.3 mph100%29.77 "Hg1 mi
10:55 PM64 °FLight rain. Fog.No wind81%29.78 "Hg3 mi
9:55 PM64 °FLight rain. Fog.No wind81%29.80 "Hg4 mi
8:55 PM64 °FLight rain. Fog.No wind81%29.80 "Hg5 mi
7:55 PM65 °FLight rain. Fog.No wind97%29.79 "Hg2 mi
6:55 PM65 °FSprinkles. Fog.No wind97%29.79 "Hg2 mi
5:55 PM65 °FSprinkles. Fog.5 mph100%29.80 "Hg2 mi
2:55 PM67 °FSprinkles. Fog.3 mph87%29.83 "Hg6 mi
1:55 PM69 °FSprinkles. Fog.3 mph79%29.84 "Hg3 mi
12:55 PM69 °FSprinkles. More clouds than sun.3 mph79%29.86 "HgN/A
11:55 AM69 °FSprinkles. Fog.3 mph84%29.87 "Hg5 mi
10:55 AM69 °FSprinkles. Fog.3 mph87%29.88 "HgN/A
Weather by CustomWeather, © 2015

See weather overviewHow to use our weather pages